This is the latest recevied weather packets stored in our database for station/object W7MB. If no packets are shown the sender has not sent any weather packets the latest 10 day(s).
| Time | Temp. | Humidity | Pressure | Rain* | Wind** | Luminosity | Snow |
|---|---|---|---|---|---|---|---|
| 1777996443 | 13.33° C | 78% | 1012.5 hPa | 0 mm | - | - | - |
| 1777996083 | 13.33° C | 81% | 1012.6 hPa | 0 mm | - | - | - |
| 1777995723 | 12.78° C | 81% | 1012.6 hPa | 0 mm | - | - | - |
| 1777995364 | 12.22° C | 81% | 1012.6 hPa | 0 mm | - | - | - |
| 1777995003 | 11.67° C | 78% | 1012.7 hPa | 0 mm | - | - | - |
| 1777994643 | 11.11° C | 73% | 1012.7 hPa | 0 mm | - | - | - |
| 1777994283 | 10.56° C | 70% | 1012.7 hPa | 0 mm | - | - | - |
| 1777993923 | 10° C | 67% | 1012.7 hPa | 0 mm | - | - | - |
| 1777993563 | 9.44° C | 63% | 1012.7 hPa | 0 mm | - | - | - |
| 1777993204 | 8.89° C | 62% | 1012.7 hPa | 0 mm | - | - | - |
| 1777992843 | 8.33° C | 63% | 1012.7 hPa | 0 mm | - | - | - |
| 1777992483 | 7.78° C | 64% | 1012.7 hPa | 0 mm | - | - | - |
| 1777992123 | 7.78° C | 64% | 1012.6 hPa | 0 mm | - | - | - |
| 1777991764 | 7.78° C | 65% | 1012.6 hPa | 0 mm | - | - | - |
| 1777991403 | 7.22° C | 69% | 1012.6 hPa | 0 mm | - | - | - |
| 1777991043 | 7.22° C | 71% | 1012.6 hPa | 0 mm | - | - | - |
| 1777990684 | 7.22° C | 72% | 1012.6 hPa | 0 mm | - | - | - |
| 1777990323 | 7.22° C | 72% | 1012.7 hPa | 0 mm | - | - | - |
| 1777989963 | 6.67° C | 73% | 1012.6 hPa | 0 mm | - | - | - |
| 1777989605 | 6.67° C | 74% | 1012.5 hPa | 0 mm | - | - | - |
| 1777989243 | 6.67° C | 73% | 1012.5 hPa | 0 mm | - | - | - |
| 1777988883 | 6.67° C | 75% | 1012.5 hPa | 0 mm | - | - | - |
| 1777988523 | 6.67° C | 74% | 1012.4 hPa | 0 mm | - | - | - |
| 1777988164 | 6.67° C | 74% | 1012.4 hPa | 0 mm | - | - | - |
| 1777987803 | 6.67° C | 74% | 1012.3 hPa | 0 mm | - | - | - |
* Rain latest hour (hover to see other rain measurements)
** Current wind speed in m/s (hover to see current wind gust speed)